Location: Unspecified
(0.0000°N, 0.0000°E)
Time: 15:25:20
(UTC+01:00)

IUS-9 SRM-1 - Visible Passes

Search period start: 30 October 2014 00:00
Search period end: 09 November 2014 00:00
Orbit: 253 x 20593 km, 26.5° (Epoch: 29 October)

Date Brightness Start Highest point End Pass type
(mag) Time Alt. Az. Time Alt. Az. Time Alt. Az.
30 Oct 7.1 02:37:54 47° NNE 02:37:54 47° NNE 02:48:21 10° NE visible
30 Oct 7.6 15:22:39 10° WSW 15:35:40 42° S 19:43:33 10° E visible
30 Oct 7.1 22:11:30 10° WSW 02:43:04 46° NNE 02:53:23 10° NE visible
31 Oct 7.7 15:27:50 10° WSW 15:41:46 42° S 19:50:51 11° E visible
31 Oct 7.1 22:18:06 10° WSW 02:48:13 45° NNE 02:58:17 10° NE visible
01 Nov 7.8 15:32:53 10° WSW 15:47:50 42° S 19:55:45 13° E visible
01 Nov 7.0 22:24:37 10° WSW 02:53:12 44° N 03:03:03 10° NE visible
02 Nov 7.9 15:37:48 10° WSW 15:53:51 41° S 20:00:32 15° E visible
02 Nov 7.0 22:31:05 10° WSW 02:58:03 43° N 03:07:42 10° NE visible
03 Nov 8.0 15:42:37 10° WSW 15:59:50 41° S 20:05:14 16° E visible
03 Nov 7.0 22:37:29 10° WSW 03:02:46 41° N 03:12:12 10° NE visible
04 Nov 8.0 15:47:17 10° WSW 16:05:47 42° S 20:09:49 18° E visible
04 Nov 7.0 22:43:52 10° WSW 03:07:21 40° N 03:16:34 10° NE visible
05 Nov 8.1 15:51:50 10° WSW 16:11:43 42° SSE 20:14:18 20° E visible
05 Nov 7.0 22:50:13 10° WSW 03:11:47 39° N 03:20:49 10° NE visible
06 Nov 8.2 15:56:15 10° WSW 16:17:38 42° SSE 20:18:40 21° E visible
06 Nov 7.0 22:56:33 10° WSW 03:16:06 38° N 03:24:56 10° NE visible
07 Nov 8.3 16:00:32 10° SW 16:23:34 43° SSE 20:22:57 23° E visible
07 Nov 6.9 23:02:53 10° WSW 03:20:17 37° N 03:28:56 10° NE visible
08 Nov 8.3 16:04:42 10° SW 16:29:30 43° SSE 20:27:07 24° E visible
08 Nov 10.3 23:09:15 10° WSW 00:00:00 23° WSW 00:00:00 23° WSW visible
